Teterboro, NJ

11:38 PM EDT on May 21, 2018 (GMT -0400)
Teterboro

Weather History for KTEB - January, 2013

Change the Weather History Date:

Thursday, January 24, 2013

  Actual Average Record
Temperature  
Mean Temperature 17 °F -  
Max Temperature 24 °F 35 °F 60 °F (1993)
Min Temperature 10 °F 20 °F 6 °F (2011)
Degree Days  
Heating Degree Days 48    
Moisture  
Dew Point 0 °F    
Average Humidity 49    
Maximum Humidity 73    
Minimum Humidity 29    
Precipitation  
Precipitation 0.00 in - - ()
Sea Level Pressure  
Sea Level Pressure 30.26 in    
Wind  
Wind Speed 7 mph (NW)    
Max Wind Speed 23 mph    
Max Gust Speed 31 mph    
Visibility 10 miles    
Events      
Averages and records for this station are not official NWS values.
T = Trace of Precipitation, MM = Missing Value Source: NWS Daily Summary

Daily Weather History Graph

Daily Weather History Graph

Search for Another Location

Airport or City:

Astronomy

Jan. 24, 2013 Rise Set
Actual Time 7:13 AM EST 5:04 PM EST
Civil Twilight 6:43 AM EST 5:33 PM EST
Nautical Twilight 6:10 AM EST 6:06 PM EST
Astronomical Twilight 5:37 AM EST 6:39 PM EST
Moon 3:03 PM EST (1/24) 5:09 AM EST (1/24)
Length of Visible Light 10h 50m
Length of Day
9h 50m
Waxing Gibbous, 94% of the Moon is Illuminated
Jan 24
Waxing Gibbous
Jan 26
Full
Feb 3
Last Quarter
Feb 10
New
Feb 17
First Quarter

Hourly Weather History & Observations

Time (EST) Temp. Windchill Dew Point Humidity Pressure Visibility Wind Dir Wind Speed Gust Speed Precip Events Conditions
12:51 AM 12.9 °F - 5.0 °F 71% 30.17 in 10.0 mi Calm Calm - N/A   Overcast
1:51 AM 14.0 °F - 3.0 °F 62% 30.16 in 10.0 mi Calm Calm - N/A   Clear
2:51 AM 12.9 °F - 3.9 °F 67% 30.14 in 10.0 mi Calm Calm - N/A   Clear
3:51 AM 10.9 °F - 3.9 °F 73% 30.14 in 10.0 mi Calm Calm - N/A   Clear
4:51 AM 12.0 °F 4.1 °F 3.0 °F 67% 30.15 in 10.0 mi NNW 4.6 mph - N/A   Overcast
5:51 AM 12.9 °F - 3.0 °F 65% 30.17 in 10.0 mi Calm Calm - N/A   Overcast
6:51 AM 12.2 °F 4.3 °F 3.2 °F 67% 30.19 in 10.0 mi North 4.6 mph - N/A   Scattered Clouds
7:51 AM 12.9 °F 5.2 °F 3.0 °F 65% 30.20 in 10.0 mi NNW 4.6 mph - N/A   Clear
8:51 AM 15.1 °F 7.7 °F 3.0 °F 59% 30.22 in 10.0 mi Variable 4.6 mph - N/A   Clear
9:51 AM 17.1 °F 4.3 °F -0.0 °F 47% 30.23 in 10.0 mi North 11.5 mph - N/A   Clear
10:51 AM 19.9 °F 7.3 °F -2.9 °F 37% 30.25 in 10.0 mi North 12.7 mph 18.4 mph N/A   Clear
11:51 AM 21.9 °F 8.2 °F -4.0 °F 32% 30.23 in 10.0 mi NNW 16.1 mph 25.3 mph N/A   Clear
12:51 PM 23.0 °F 7.2 °F -4.0 °F 31% 30.23 in 10.0 mi NW 23.0 mph 31.1 mph N/A   Scattered Clouds
1:51 PM 24.1 °F 9.8 °F -4.0 °F 29% 30.24 in 10.0 mi NW 19.6 mph 28.8 mph N/A   Scattered Clouds
2:51 PM 23.0 °F 9.2 °F -4.0 °F 31% 30.27 in 10.0 mi NNW 17.3 mph 25.3 mph N/A   Partly Cloudy
3:51 PM 23.0 °F 8.3 °F -2.9 °F 32% 30.28 in 10.0 mi NNW 19.6 mph 29.9 mph N/A   Clear
4:51 PM 21.0 °F 8.1 °F -2.9 °F 35% 30.30 in 10.0 mi WNW 13.8 mph 25.3 mph N/A   Clear
5:51 PM 21.0 °F 8.6 °F -2.9 °F 35% 30.34 in 10.0 mi NW 12.7 mph 24.2 mph N/A   Clear
6:51 PM 19.0 °F 6.1 °F -2.9 °F 38% 30.37 in 10.0 mi NW 12.7 mph 23.0 mph N/A   Clear
7:51 PM 18.0 °F 2.6 °F -2.0 °F 41% 30.38 in 10.0 mi WNW 17.3 mph 25.3 mph N/A   Clear
8:51 PM 17.1 °F 1.5 °F -0.9 °F 45% 30.37 in 10.0 mi WNW 17.3 mph 27.6 mph N/A   Clear
9:51 PM 17.1 °F 1.0 °F -0.9 °F 45% 30.37 in 10.0 mi WNW 18.4 mph 27.6 mph N/A   Clear
10:51 PM 16.0 °F 1.7 °F -0.9 °F 47% 30.39 in 10.0 mi WNW 13.8 mph 24.2 mph N/A   Clear
11:51 PM 15.1 °F 4.2 °F -2.9 °F 45% 30.40 in 10.0 mi NW 8.1 mph 20.7 mph N/A   Clear